Location: Härggis
(46.9540°N, 8.4897°E)
Time: 20:44:57
(UTC+00:00)

SL-16 R/B - Pass Details

Date: 04 October 2022
Orbit: 985 x 1007 km, 99.6° (Epoch: 05 December)

Event Time Altitude Azimuth Distance (km) Brightness Sun altitude
Exits shadow 01:19:40 22° 348° (NNW) 2,057 4.4 -39.6°
Drops below altitude 10° 01:21:36 10° 346° (NNW) 2,778 5.2 -39.3°
Sets 01:24:05 0° 346° (NNW) 3,734 5.9 -39.0°
